Location: Leverkusen
(51.0459°N, 7.0192°E)
Time: 13:47:57
(UTC+01:00)

ISS - Pass Details

Date: 30 January 2019
Orbit: 403 x 411 km, 51.6° (Epoch: 23 February)

Event Time Altitude Azimuth Distance (km) Brightness Sun altitude
Rises 20:34:41 0° 282° (WNW) 2,341 1.2 -30.7°
Reaches altitude 10° 20:36:46 10° 281° (W) 1,480 -0.1 -31.0°
Enters shadow 20:37:05 12° 281° (W) 1,351 -0.4 -31.1°
